www.pogodaiklimat.ru

АРХИВ ПОГОДЫ в Нью-Йорке Сити

Время (UTC), дата Ветер
(напр.,м/с)
 
Видим.   Явления Облачность Т
(С)
Тd
(С)
f
(%)
Тe
(С)
Тes
(С)
Комфортность

P
(гПа)

Po
(гПа)
Тmin
(С)
Tmax
(С)
R
(мм)
SD
(см)
04:51 20.11 З  6
{9} 
16 км    10/0 2700 м
[средняя] 
+4.0  -2.0  65  -1  -1    1008.8  1004.1         
05:51 20.11 З  3
{8} 
16 км    8/8 1950 м
[средняя] 
+4.4  -2.8  59  +1  +1    1009.5  1004.8  +3.3  +7.2     
06:51 20.11 З  4
{8} 
16 км    10/0 2100 м
[средняя] 
+4.0  -3.0  60  0  0    1010.4  1005.4         
07:51 20.11 З  4
{8} 
16 км    10/0 2250 м
[средняя] 
+3.9  -3.3  59  -0  -0    1011.4  1006.4         
08:51 20.11     16 км    5/2 1350 м
[средняя] 
+3.3  -3.9  59  +3  +3    1012.5  1007.5         
09:51 20.11 нст  3
{8} 
16 км    8/0 2250 м
[средняя] 
+2.8  -4.4  59  -1  -1    1013.4  1008.5         
14:51 20.11 З  16 км    8/5 1380 м
[средняя] 
+4.0  -4.0  56  -0  0    1017.1  1012.2         
15:51 20.11 З  16 км    8/8 1650 м  +5.6  -5.6  44  +3  +3    1016.9  1011.8         
16:51 20.11 З  4
{10} 
16 км    8/8 1650 м  +7.0  -6.0  39  +4  +4    1016.4  1011.5         
17:51 20.11 З  4
{11} 
16 км    8/8 1800 м  +7.0  -7.0  36  +4  +4    1016.2  1011.2  +2.2  +8.3     
18:51 20.11 З  4
{10} 
16 км    ясно  +7.0  -6.0  39  +4  +7    1016.6  1011.8         
19:51 20.11 З  4
{9} 
16 км    ясно  +8.0  -6.0  36  +5  +7    1016.9  1011.8         
20:51 20.11 З  4
{10} 
16 км    ясно  +8.0  -6.0  36  +5  +6    1017.7  1012.8         
21:51 20.11 З   4
{9} 
16 км    ясно  +7.0  -5.0  42  +4  +4    1018.3  1013.2         
22:51 20.11 нст  16 км    ясно  +6.7  -4.4  45  +4  +4    1018.9  1013.9         
23:51 20.11 нст  16 км    ясно  +6.7  -3.9  47  +5  +5    1019.1  1014.2         
00:51 21.11     16 км    ясно  +6.7  -4.4  45  +6  +6    1019.3  1014.5         
01:51 21.11 нст  16 км    ясно  +6.1  -5.0  45  +4  +4    1019.4  1014.5         
02:51 21.11 штиль  16 км    ясно  +6.1  -4.4  47  +6  +6    1019.5  1014.5         
03:51 21.11 нст  16 км    ясно  +5.6  -4.4  49  +3  +3    1020.1  1015.2         
04:51 21.11 ЮЗ  16 км    ясно  +6.0  -4.0  49  +3  +3    1020.1  1015.2         
05:51 21.11 З  4
{10} 
16 км    ясно  +6.0  -4.0  49  +3  +3    1019.9  1014.9  +5.6       
06:51 21.11 нст  16 км    ясно  +6.1  -3.9  49  +3  +3    1020.0  1015.2         
07:51 21.11     16 км    ясно  +6.1  -3.3  51  +6  +6    1020.0  1015.2         
08:51 21.11 ЮЗ  16 км    ясно  +6.1  -1.7  57  +4  +4    1019.8  1014.9         
09:51 21.11 нст  16 км    ясно  +5.6  -1.7  59  +3  +3    1019.5  1014.5         
10:51 21.11 нст  16 км    ясно  +6.1  -1.7  57  +5  +5    1020.0  1015.2         
11:51 21.11     16 км    ясно  +6.1  -1.7  57  +6  +6    1020.1  1015.2    +6.7     
12:51 21.11 ЮЗ  4
{8} 
16 км    ясно  +7.0  -1.0  57  +4  +4    1020.2  1015.2         
13:51 21.11     16 км    ясно  +8.3  0.0  56  +8  +8    1020.0  1014.9         
14:51 21.11 нст  3
{8} 
16 км    ясно  +10.0  -1.0  46  +8  +9    1019.8  1014.9         
15:51 21.11 нст  16 км    ясно  +11.7  -1.1  41  +10  +13    1019.3  1014.5         
16:51 21.11     16 км    ясно  +12.2  -1.1  40  +12  +18    1018.6  1013.5         
17:51 21.11 нст  16 км    ясно  +13.3  0.0  40  +12  +16    1017.4  1012.5         
18:51 21.11 нст  16 км    ясно  +14.4  -1.7  33  +14  +17    1017.0  1012.2         
19:51 21.11 штиль  16 км    ясно  +14.4  -1.7  33  +14  +19    1016.3  1011.5         
20:51 21.11 Ю  16 км    ясно  +13.3  0.0  40  +13  +14    1016.5  1011.5         
21:51 21.11 нст  16 км    ясно  +12.2  -1.7  38  +12  +12    1016.4  1011.5         
22:51 21.11 штиль  16 км    ясно  +12.2  -1.1  40  +12  +12    1016.7  1011.8         
23:51 21.11 нст  16 км    ясно  +11.7  +1.7  50  +11  +11    1017.3  1012.2         
00:51 22.11 З  4
{9} 
16 км    ясно  +12.0  +3.0  54  +10  +10    1017.4  1012.5         
01:51 22.11 нст  16 км    ясно  +11.7  +3.9  59  +10  +10    1017.3  1012.5         
02:51 22.11 нст  16 км    ясно  +11.1  +4.4  63  +10  +10    1017.3  1012.2         
03:51 22.11 ЮЗ  3
{8} 
16 км    ясно  +12.2  +4.4  59  +11  +11    1017.0  1012.2         
04:51 22.11 нст  16 км    ясно  +12.0  +4.0  58  +11  +11    1016.5  1011.5         
05:51 22.11 штиль  16 км    ясно  +12.2  +5.6  64  +12  +12    1015.6  1010.8         
06:51 22.11 нст  16 км    ясно  +12.2  +6.1  66  +12  +12    1015.1  1010.1         
07:51 22.11 штиль  16 км    ясно  +12.2  +6.7  69  +12  +12    1014.6  1009.8         

 

Местоположение метеостанции Central Park: широта 40.7833 долгота -73.9667 высота над уровнем моря 47 м.

В архиве по умолчанию представлена погода в Нью-Йорке Сити за последние 1-2 суток. Обновление информации о фактической погоде в базе происходит ежечасно! Архивные данные за месяц целиком и за предыдущие месяцы Вы можете получить, выбрав интересующий диапазон дат из раскрывающегося списка и нажав кнопку "Ввод!".

Внимание! Архив погоды МЕТАР в базе сайта в настоящее время начинается c 1 января 2013 г. Нет смысла пытаться выбрать более раннюю дату.

Внимание! Время в таблицах - всемирное. Для получения местного времени необходимо прибавить поправку, которая в Нью-Йорке Сити равна -5 ч.

Ветер - указаны скорость ветра в м/с и направление, откуда дует ветер: С - северный, СВ - северо-восточный, В - восточный, ЮВ - юго-восточный, Ю - южный, ЮЗ - юго-западный, З - западный, СЗ - северо-западный.
Видимость - горизонтальная дальность видимости в метрах или километрах. При видимости от 1 до 10 км при отсутствии осадков обычно наблюдается дымка, при ухудшении видимости до 1 км и менее - туман. В сухую погоду видимость может ухудшаться дымом, пылью или мглою.
Атмосферные явления - указаны явления, наблюдавшиеся в указанный момент времени.
Облачность - указаны через наклонную черту верхняя и нижняя облачность в баллах и высота нижней границы облаков в метрах. Внимание: облачность, как и прочие метеорологические величины в США измеряются автоматическими метеостанциями. Указанные значения в баллах носят условный характер и показывают процент времени, в течение которого, в среднем, лазерный луч высотомера отражался от облаков обратно.
T - Температура воздуха - температура, измеренная на высоте 2 м над землей.
Td - Температура точки росы - температура, при понижении до которой содержащийся в воздухе водяной пар достигнет насыщения.
f - Относительная влажность воздуха - влажноcть воздуха, измеренная на высоте 2 м над землей.
Te - Эффективная температура - температура, которую ощущает одетый по сезону человек в тени. Характеристика душности погоды. При расчете учитывается влияние влажности воздуха и скорости ветра на теплоощущения человека.
Tes - Эффективная температура на солнце - температура, которую ощущает человек, с поправкой на солнечный нагрев. Характеристика знойности погоды. Зависит от высоты солнца над горизонтом, облачности и скорости ветра. Ночью, в пасмурную погоду, а также при ветре 12 м/с и более поправка равна нулю.
P - Атмосферное давление - приведенное к уровню моря атмосферное давление.
Po - Атмосферное давление - измеренное на уровне метеостанции атмосферное давление.
Tmin - Минимальная температура - минимум температуры воздуха на высоте 2 м над землей.
Tmax - Максимальная температура - максимум температуры воздуха на высоте 2 м над землей.
R - Количество осадков - Количество выпавших осадков за 3 или 6 часов, мм.
SD - Снежный покров - Высота снежного покрова, см.